Location: DaVinci Observatory
(43.1080°N, 78.6453°W)
Time: 22:25:17
(UTC-05:00)

Envisat - Pass Details

Date: 10 October 2017
Orbit: 764 x 766 km, 98.2° (Epoch: 17 December)

Event Time Altitude Azimuth Distance (km) Brightness Sun altitude
Exits shadow 21:07:44 81° 266° (W) 781 3.0 -27.6°
Drops below altitude 10° 21:12:48 10° 345° (NNW) 2,313 5.8 -28.5°
Sets 21:15:07 0° 346° (NNW) 3,244 6.7 -28.9°
